World > North America > United States > New York   Town of Mohawk, NY

Mohawk, New York Regional Weather

Lat: 43.01N, Lon: 75.01W
Wx Zone: NYZ038
Warning NWS WEATHER ALERT - WINTER WEATHER ADVISORY (More Info. Click Here) Warning
Feedback

Mohawk, NY Regional Weather

Expires:202002200500;;806481
ASUS41 KGYX 200410
RWRGYX
WEATHER ROUNDUP FOR MAINE AND NEW HAMPSHIRE
NATIONAL WEATHER SERVICE GRAY ME
1100 PM EST WED FEB 19 2020


MAZ007-012-024-CTZ003-RIZ002-NYZ038-NYZ072-200500-
SOUTHERN NEW ENGLAND AND NY
  
CITY           SKY/WX    TMP DP  RH WIND       PRES   REMARKS
BOSTON         FAIR      34   9  35 W13G23    30.31R                  
WORCESTER      FAIR      24   7  48 W13G23    30.26R WCI  12          
NANTUCKET      FAIR      34  14  43 NW16G22   30.30R                  
PROVIDENCE     FAIR      30  10  43 W10       30.34R                  
HARTFORD       FAIR      27  10  49 NW12      30.38R WCI  17          
ALBANY         FAIR      25   8  48 NW7       30.38S                  
NEW YORK CITY  FAIR      34  16  47 N9        30.39R                  
$$


SKY/WX - Weather  TMP - Temperature  DP - Dew Point  RH - Relative Humidity
WIND - Wind Direction/Speed PRES - Barometric Pressure VSB - Visibility
WCI - Wind Chill Index E13G22 Wind - East Wind 13 mph/Gusts of 22 mph
New York Weather Map
What is UTC time?